Location: Bacharowice
(49.9333°N, 19.5833°E)
Time: 23:54:14
(UTC+00:00)

SJ 16-02 - Pass Details

Date: 11 May 2021
Orbit: 606 x 616 km, 75.0° (Epoch: 21 June)

Event Time Altitude Azimuth Distance (km) Brightness Sun altitude
Exits shadow 19:42:33 14° 162° (SSE) 1,701 3.1 -11.7°
Maximum altitude 19:45:46 34° 103° (ESE) 1,014 2.0 -12.1°
Drops below altitude 10° 19:49:47 10° 38° (NE) 1,989 4.1 -12.5°
Sets 19:52:11 0° 29° (NNE) 2,899 5.1 -12.8°
